Regional Weather Roundup
Issued by NWS Green Bay, WI

Home | Current Version | Previous Version | Graphics & Text | Print | Product List | Glossary Off
Versions: 1 2 3 4 5 6 7 8 9 10 11 12 13 14 15 16 17 18 19 20 21 22 23 24 25 26 27 28 29 30 31 32 33 34 35 36 37 38 39 40 41 42 43 44 45 46 47 48 49 50

201
ASUS43 KGRB 260600
RWRGRB

NORTH-CENTRAL AND NORTHEAST WISCONSIN REGIONAL WEATHER ROUNDUP
NATIONAL WEATHER SERVICE GREEN BAY WI
100 AM CDT MON JUN 26 2017

WIZ005-009-010>012-018-019-260700-
NORTH CENTRAL WISCONSIN

CITY           SKY/WX    TMP DP  RH WIND       PRES   REMARKS
IRONWOOD       LGT RAIN  46  46 100 NW9       30.05S FOG
MANITOWISH WTR NOT AVBL
ARBOR VITAE    NOT AVBL
EAGLE RIVER    NOT AVBL
LAND O LAKES   DRIZZLE   49  47  94 W6        30.01F
RHINELANDER    PTCLDY    46  46 100 W7        30.03F
PHILLIPS       NOT AVBL
ANTIGO         NOT AVBL
TOMAHAWK       NOT AVBL
MERRILL        PTCLDY    49  49  99 W7        30.05F
$$

WIZ013-073-260700-
NORTHEAST WISCONSIN

CITY           SKY/WX    TMP DP  RH WIND       PRES   REMARKS
IRON MOUNTAIN  CLOUDY    50  46  86 NW9       29.97F
MARINETTE      CLEAR     52  50  93 VRB3      29.99F
$$

WIZ017-030-035>037-045-260700-
CENTRAL WISCONSIN

CITY           SKY/WX    TMP DP  RH WIND       PRES   REMARKS
MEDFORD        NOT AVBL
WAUSAU         CLEAR     49  48  97 W8        30.03F
MOSINEE        NOT AVBL
MARSHFIELD     CLEAR     49  45  86 W6        30.06F
WISC RAPIDS    CLEAR     50  46  86 W6        30.08F
STEVENS POINT  NOT AVBL
WAUPACA        CLEAR     53  50  92 W5        30.05F
SHAWANO        NOT AVBL
CLINTONVILLE   CLEAR     50  46  87 W6        30.04S
WAUTOMA        CLEAR     49  47  93 W3        30.07F
$$

WIZ038-039-048-051-260700-
FOX VALLEY

CITY           SKY/WX    TMP DP  RH WIND       PRES   REMARKS
NWS GREEN BAY  CLEAR     53  50  89 W8        30.02F
APPLETON       NOT AVBL
OSHKOSH        CLEAR     53  48  83 W6        30.04F
FOND DU LAC    CLEAR     55  47  74 W6        30.05F
$$

WIZ022-050-052-260700-
EAST CENTRAL WISCONSIN

CITY           SKY/WX    TMP DP  RH WIND       PRES   REMARKS
EPHRAIM        NOT AVBL
WASHINGTON ISL NOT AVBL
STURGEON BAY     N/A     55  50  83 W9G20       N/A
MANITOWOC      NOT AVBL
SHEBOYGAN      CLEAR     53  53 100 W5        30.04S
$$

LMZ563-521-522-541>543-260700-
LAKESHORE

STATION/POSITION TIME  TEMP    WIND        PRES    VSBY  WAVE
                       AIR SEA DIR/SP/G                  HT/PER
                 (UTC) (F)     (DEG/KT/KT) (MB)    (MI)  (FT/S)
SHEBOYGAN LKSHOR 0500   58     270/ 10/ 13 1017.0F
KEWAUNEE LKSHORE 0530   55     290/  5/  9 1015.7R
NORTHPORT PIER   0540   57     310/  7/  8 1014.9S
N MID LAKE BUOY  0450   57 57   10/  4/  6 1015.5S         2/ 3
S GREEN BAY BUOY 0530   57     290/ 14/ 17 1015.8S
CHAMBERS ISLAND  0540   55     280/  5/ 16 1014.6F
MENOMINEE LKSHOR 0524          270/  6/ 13 1014.8
$$




USA.gov is the U.S. government's official web portal to all federal, state and local government web resources and services.